SAS777 EFHK-EFTU

Flight info

Callsign SAS777
Flight time 0h 24m
Altitude 16000
Route ADIVO5C ADIVO DCT EXUPA EXUPA4C
Aircraft A320/M-SDE3FGHIRWY/LB1

Departure

Time 2026-04-26 20:36
Airport Helsinki Vantaa Airport (EFHK)

Arrival

Time 2026-04-26 21:00
Airport Turku Airport (EFTU)
Time Latitude Longitude Altitude Speed Heading
2026-04-26 20:10 60.31843 24.96463 168 ft 0 kts 135°
2026-04-26 20:19 60.31843 24.96462 168 ft 0 kts 135°
2026-04-26 20:28 60.31854 24.96441 167 ft 3 kts 137°
2026-04-26 20:29 60.31871 24.96414 167 ft 3 kts 161°
2026-04-26 20:29 60.31892 24.96410 167 ft 3 kts 205°
2026-04-26 20:29 60.31902 24.96422 167 ft 0 kts 225°
2026-04-26 20:32 60.31900 24.96415 167 ft 2 kts 232°
2026-04-26 20:32 60.31882 24.96371 166 ft 6 kts 231°
2026-04-26 20:32 60.31858 24.96269 165 ft 10 kts 257°
2026-04-26 20:33 60.31882 24.96109 163 ft 14 kts 310°
2026-04-26 20:33 60.31925 24.95962 162 ft 13 kts 259°
2026-04-26 20:33 60.31860 24.95809 161 ft 16 kts 227°
2026-04-26 20:33 60.31774 24.95622 160 ft 20 kts 227°
2026-04-26 20:34 60.31674 24.95397 158 ft 23 kts 229°
2026-04-26 20:34 60.31559 24.95139 157 ft 26 kts 226°
2026-04-26 20:34 60.31431 24.94852 155 ft 29 kts 228°
2026-04-26 20:34 60.31292 24.94545 153 ft 31 kts 228°
2026-04-26 20:35 60.31139 24.94210 151 ft 34 kts 226°
2026-04-26 20:35 60.31037 24.93945 149 ft 16 kts 262°
2026-04-26 20:35 60.31092 24.93738 147 ft 19 kts 320°
2026-04-26 20:35 60.31205 24.93799 148 ft 19 kts 47°
2026-04-26 20:36 60.31396 24.94211 152 ft 73 kts 47°
2026-04-26 20:36 60.31876 24.95276 159 ft 129 kts 48°
2026-04-26 20:36 60.32589 24.96788 323 ft 155 kts 42°
2026-04-26 20:36 60.33321 24.98317 1054 ft 148 kts 39°
2026-04-26 20:37 60.34040 24.99814 1670 ft 155 kts 38°
2026-04-26 20:37 60.34829 25.01548 1992 ft 178 kts 40°
2026-04-26 20:37 60.35701 25.03495 2358 ft 202 kts 41°
2026-04-26 20:37 60.36701 25.05729 2806 ft 226 kts 42°
2026-04-26 20:38 60.37786 25.08162 3556 ft 237 kts 43°
2026-04-26 20:38 60.38904 25.10657 4497 ft 240 kts 40°
2026-04-26 20:38 60.40283 25.12486 5363 ft 239 kts 15°
2026-04-26 20:38 60.41925 25.12896 6257 ft 240 kts 360°
2026-04-26 20:39 60.43606 25.12952 7134 ft 243 kts 360°
2026-04-26 20:39 60.44731 25.12982 7731 ft 245 kts
2026-04-26 20:39 60.47042 25.13038 8842 ft 251 kts 359°
2026-04-26 20:39 60.48745 25.12244 9678 ft 258 kts 334°
2026-04-26 20:40 60.50085 25.09780 10402 ft 269 kts 306°
2026-04-26 20:40 60.50660 25.06145 11072 ft 288 kts 280°
2026-04-26 20:40 60.50764 25.01915 11284 ft 312 kts 276°
2026-04-26 20:40 60.50783 24.97398 11767 ft 325 kts 274°
2026-04-26 20:41 60.50765 24.92782 12459 ft 329 kts 274°
2026-04-26 20:41 60.50579 24.88123 13189 ft 337 kts 263°
2026-04-26 20:41 60.49903 24.83513 13881 ft 345 kts 252°
2026-04-26 20:41 60.48876 24.79089 14562 ft 348 kts 249°
2026-04-26 20:42 60.47834 24.74636 15222 ft 351 kts 250°
2026-04-26 20:42 60.46790 24.70138 15744 ft 354 kts 250°
2026-04-26 20:42 60.45755 24.65667 15877 ft 356 kts 250°
2026-04-26 20:42 60.44698 24.61089 15898 ft 361 kts 250°
2026-04-26 20:43 60.43627 24.56484 15896 ft 362 kts 250°
2026-04-26 20:43 60.42547 24.51881 15897 ft 362 kts 249°
2026-04-26 20:43 60.41464 24.47283 15897 ft 362 kts 249°
2026-04-26 20:43 60.40378 24.42678 15898 ft 362 kts 249°
2026-04-26 20:44 60.39293 24.38086 15917 ft 362 kts 249°
2026-04-26 20:44 60.38202 24.33485 15924 ft 362 kts 249°
2026-04-26 20:44 60.37109 24.28892 15924 ft 362 kts 249°
2026-04-26 20:44 60.36019 24.24316 15923 ft 362 kts 249°
2026-04-26 20:45 60.34925 24.19736 15894 ft 363 kts 249°
2026-04-26 20:45 60.33824 24.15137 15899 ft 363 kts 250°
2026-04-26 20:45 60.32744 24.10625 15898 ft 363 kts 250°
2026-04-26 20:45 60.31645 24.06037 15911 ft 363 kts 250°
2026-04-26 20:46 60.30766 24.01326 15921 ft 355 kts 262°
2026-04-26 20:46 60.30381 23.96508 15941 ft 339 kts 273°
2026-04-26 20:46 60.30446 23.91884 15726 ft 321 kts 283°
2026-04-26 20:46 60.30863 23.87563 15453 ft 310 kts 288°
2026-04-26 20:47 60.31320 23.83347 15088 ft 306 kts 288°
2026-04-26 20:47 60.31614 23.80584 14834 ft 303 kts 288°
2026-04-26 20:47 60.32193 23.75045 14323 ft 300 kts 288°
2026-04-26 20:47 60.32617 23.70950 13947 ft 297 kts 288°
2026-04-26 20:48 60.33031 23.66938 13567 ft 295 kts 288°
2026-04-26 20:48 60.33445 23.62915 13184 ft 291 kts 288°
2026-04-26 20:48 60.33857 23.58929 12820 ft 288 kts 288°
2026-04-26 20:48 60.34264 23.54998 12461 ft 285 kts 288°
2026-04-26 20:49 60.34665 23.51096 12112 ft 282 kts 288°
2026-04-26 20:49 60.35061 23.47239 11763 ft 279 kts 288°
2026-04-26 20:49 60.35450 23.43423 11416 ft 276 kts 288°
2026-04-26 20:49 60.35833 23.39643 11088 ft 273 kts 288°
2026-04-26 20:50 60.36211 23.35893 10746 ft 271 kts 288°
2026-04-26 20:50 60.36585 23.32185 10411 ft 269 kts 288°
2026-04-26 20:50 60.36953 23.28525 10100 ft 267 kts 288°
2026-04-26 20:50 60.37314 23.24897 10015 ft 263 kts 288°
2026-04-26 20:51 60.37676 23.21269 9830 ft 265 kts 288°
2026-04-26 20:51 60.38047 23.17588 9379 ft 266 kts 288°
2026-04-26 20:51 60.38410 23.13946 9037 ft 263 kts 288°
2026-04-26 20:51 60.38933 23.10454 8648 ft 256 kts 300°
2026-04-26 20:52 60.39797 23.07352 8271 ft 252 kts 306°
2026-04-26 20:52 60.40700 23.04322 7910 ft 251 kts 306°
2026-04-26 20:52 60.41598 23.01294 7551 ft 250 kts 306°
2026-04-26 20:52 60.42478 22.98316 7200 ft 249 kts 306°
2026-04-26 20:53 60.43362 22.95310 6791 ft 246 kts 306°
2026-04-26 20:53 60.44234 22.92340 6153 ft 245 kts 306°
2026-04-26 20:53 60.45098 22.89396 5484 ft 244 kts 306°
2026-04-26 20:53 60.45966 22.86444 4854 ft 243 kts 306°
2026-04-26 20:54 60.46826 22.83513 4198 ft 241 kts 306°
2026-04-26 20:54 60.47656 22.80669 3982 ft 226 kts 306°
2026-04-26 20:54 60.48431 22.78002 3920 ft 214 kts 306°
2026-04-26 20:54 60.49165 22.75477 3863 ft 201 kts 307°
2026-04-26 20:55 60.49859 22.73093 3826 ft 194 kts 307°
2026-04-26 20:55 60.50521 22.70819 3778 ft 183 kts 307°
2026-04-26 20:55 60.51152 22.68643 3733 ft 177 kts 307°
2026-04-26 20:55 60.51757 22.66557 3708 ft 165 kts 307°
2026-04-26 20:56 60.52318 22.64624 3606 ft 153 kts 308°
2026-04-26 20:56 60.52766 22.62727 3544 ft 147 kts 295°
2026-04-26 20:56 60.52801 22.60616 3374 ft 151 kts 279°
2026-04-26 20:56 60.52755 22.58522 3186 ft 148 kts 277°
2026-04-26 20:57 60.52689 22.56448 2989 ft 145 kts 277°
2026-04-26 20:57 60.52612 22.54407 2787 ft 144 kts 277°
2026-04-26 20:57 60.52532 22.52381 2593 ft 144 kts 277°
2026-04-26 20:57 60.52449 22.50354 2392 ft 144 kts 276°
2026-04-26 20:58 60.52365 22.48359 2176 ft 144 kts 276°
2026-04-26 20:58 60.52279 22.46330 1974 ft 143 kts 276°
2026-04-26 20:58 60.52194 22.44317 1772 ft 143 kts 276°
2026-04-26 20:58 60.52108 22.42313 1568 ft 142 kts 275°
2026-04-26 20:59 60.52024 22.40316 1367 ft 141 kts 275°
2026-04-26 20:59 60.51943 22.38333 1195 ft 142 kts 274°
2026-04-26 20:59 60.51856 22.36352 953 ft 140 kts 271°
2026-04-26 20:59 60.51766 22.34393 744 ft 139 kts 270°
2026-04-26 21:00 60.51675 22.32451 528 ft 136 kts 271°
2026-04-26 21:00 60.51607 22.30519 372 ft 139 kts 269°
2026-04-26 21:00 60.51496 22.28610 246 ft 136 kts 268°
2026-04-26 21:00 60.51472 22.27738 169 ft 0 kts 270°